RYR5EL EDDH-EDDS

Flight info

Callsign RYR5EL
Flight time 0h 54m
Altitude 23000
Route IDEKO7G IDEKO N850 KRH T128 BADSO BADSO2A
Aircraft B738/M-SDE2E3FGHIRWXY/LB1

Departure

Time 2026-05-05 15:26
Airport Hamburg Helmut Schmidt Airport (EDDH)

Arrival

Time 2026-05-05 16:21
Airport Stuttgart Airport (EDDS)
Time Latitude Longitude Altitude Speed Heading
2026-05-05 15:07 53.62773 10.00273 47 ft 0 kts 63°
2026-05-05 15:20 53.62772 10.00268 47 ft 3 kts 63°
2026-05-05 15:20 53.62758 10.00229 44 ft 4 kts 53°
2026-05-05 15:21 53.62740 10.00196 44 ft 4 kts 33°
2026-05-05 15:21 53.62718 10.00183 45 ft 4 kts 344°
2026-05-05 15:21 53.62712 10.00186 46 ft 1 kts 333°
2026-05-05 15:24 53.62730 10.00171 45 ft 4 kts 333°
2026-05-05 15:24 53.62768 10.00138 47 ft 8 kts 333°
2026-05-05 15:24 53.62815 10.00097 47 ft 8 kts 331°
2026-05-05 15:24 53.62851 10.00038 47 ft 7 kts 293°
2026-05-05 15:25 53.62841 9.99951 47 ft 9 kts 240°
2026-05-05 15:25 53.62813 9.99842 44 ft 11 kts 258°
2026-05-05 15:25 53.62860 9.99752 44 ft 12 kts 331°
2026-05-05 15:25 53.62958 9.99667 44 ft 32 kts 333°
2026-05-05 15:26 53.63372 9.99309 46 ft 102 kts 333°
2026-05-05 15:26 53.64193 9.98602 53 ft 160 kts 334°
2026-05-05 15:26 53.65264 9.97636 474 ft 177 kts 334°
2026-05-05 15:26 53.66339 9.96660 1346 ft 180 kts 335°
2026-05-05 15:27 53.67518 9.95598 1841 ft 204 kts 335°
2026-05-05 15:27 53.68833 9.94454 2323 ft 219 kts 333°
2026-05-05 15:27 53.70065 9.92928 3087 ft 221 kts 315°
2026-05-05 15:27 53.70922 9.90774 3832 ft 229 kts 296°
2026-05-05 15:28 53.71212 9.87944 4016 ft 265 kts 262°
2026-05-05 15:28 53.70720 9.85038 5309 ft 242 kts 254°
2026-05-05 15:28 53.70230 9.82426 6530 ft 234 kts 253°
2026-05-05 15:28 53.69686 9.79676 6772 ft 262 kts 251°
2026-05-05 15:29 53.69024 9.76684 7203 ft 277 kts 250°
2026-05-05 15:29 53.68362 9.73730 8307 ft 266 kts 251°
2026-05-05 15:29 53.67755 9.70789 9225 ft 270 kts 251°
2026-05-05 15:29 53.67145 9.67683 9685 ft 284 kts 252°
2026-05-05 15:30 53.66535 9.64572 10400 ft 277 kts 252°
2026-05-05 15:30 53.65897 9.61472 10952 ft 285 kts 247°
2026-05-05 15:30 53.64726 9.58726 11483 ft 298 kts 220°
2026-05-05 15:30 53.62832 9.57060 11800 ft 321 kts 198°
2026-05-05 15:31 53.60564 9.56434 12260 ft 335 kts 188°
2026-05-05 15:31 53.58188 9.56076 12651 ft 352 kts 186°
2026-05-05 15:31 53.55677 9.55757 12832 ft 372 kts 186°
2026-05-05 15:31 53.53057 9.55386 13243 ft 383 kts 187°
2026-05-05 15:32 53.50393 9.54950 13864 ft 387 kts 188°
2026-05-05 15:32 53.47706 9.54464 14515 ft 389 kts 188°
2026-05-05 15:32 53.45922 9.54126 14943 ft 390 kts 188°
2026-05-05 15:32 53.43217 9.53598 15558 ft 393 kts 189°
2026-05-05 15:33 53.40488 9.53059 16148 ft 397 kts 189°
2026-05-05 15:33 53.37728 9.52514 16729 ft 400 kts 189°
2026-05-05 15:33 53.34956 9.51969 17335 ft 403 kts 189°
2026-05-05 15:33 53.32159 9.51420 17902 ft 407 kts 189°
2026-05-05 15:34 53.29324 9.50863 18424 ft 410 kts 189°
2026-05-05 15:34 53.26480 9.50302 18942 ft 412 kts 189°
2026-05-05 15:34 53.23624 9.49740 19473 ft 414 kts 189°
2026-05-05 15:34 53.20789 9.49182 19976 ft 416 kts 189°
2026-05-05 15:35 53.17902 9.48614 20482 ft 419 kts 189°
2026-05-05 15:35 53.14995 9.48044 20975 ft 421 kts 189°
2026-05-05 15:35 53.11088 9.47280 21624 ft 424 kts 189°
2026-05-05 15:35 53.09141 9.46899 21933 ft 425 kts 189°
2026-05-05 15:36 53.06195 9.46324 22426 ft 427 kts 189°
2026-05-05 15:36 53.03235 9.45746 22852 ft 429 kts 189°
2026-05-05 15:36 53.00280 9.45170 22873 ft 436 kts 189°
2026-05-05 15:36 52.97251 9.44565 22890 ft 440 kts 189°
2026-05-05 15:37 52.94189 9.43919 22882 ft 437 kts 189°
2026-05-05 15:37 52.91172 9.43269 22878 ft 436 kts 189°
2026-05-05 15:37 52.88211 9.42629 22886 ft 435 kts 189°
2026-05-05 15:37 52.85220 9.41986 22883 ft 435 kts 189°
2026-05-05 15:38 52.82208 9.41343 22877 ft 434 kts 189°
2026-05-05 15:38 52.79213 9.40706 22880 ft 434 kts 189°
2026-05-05 15:38 52.76213 9.40071 22883 ft 434 kts 189°
2026-05-05 15:38 52.73212 9.39436 22888 ft 435 kts 189°
2026-05-05 15:39 52.70205 9.38802 22881 ft 435 kts 189°
2026-05-05 15:39 52.67195 9.38167 22882 ft 436 kts 189°
2026-05-05 15:39 52.64187 9.37534 22882 ft 436 kts 189°
2026-05-05 15:39 52.61179 9.36881 22885 ft 436 kts 189°
2026-05-05 15:40 52.58179 9.36128 22896 ft 436 kts 190°
2026-05-05 15:40 52.55179 9.35324 22886 ft 437 kts 191°
2026-05-05 15:40 52.52180 9.34514 22876 ft 437 kts 191°
2026-05-05 15:40 52.49208 9.33720 22882 ft 437 kts 190°
2026-05-05 15:41 52.46177 9.32922 22880 ft 436 kts 190°
2026-05-05 15:41 52.43218 9.32152 22884 ft 435 kts 190°
2026-05-05 15:41 52.40224 9.31376 22886 ft 435 kts 190°
2026-05-05 15:41 52.37232 9.30603 22882 ft 435 kts 190°
2026-05-05 15:42 52.34242 9.29830 22881 ft 434 kts 190°
2026-05-05 15:42 52.31257 9.29053 22859 ft 434 kts 190°
2026-05-05 15:42 52.28273 9.28272 22857 ft 434 kts 190°
2026-05-05 15:42 52.25285 9.27492 22860 ft 434 kts 190°
2026-05-05 15:43 52.22302 9.26727 22862 ft 434 kts 189°
2026-05-05 15:43 52.19300 9.26123 22860 ft 435 kts 187°
2026-05-05 15:43 52.16291 9.25617 22863 ft 435 kts 187°
2026-05-05 15:43 52.13279 9.25124 22851 ft 434 kts 187°
2026-05-05 15:44 52.10275 9.24606 22849 ft 434 kts 187°
2026-05-05 15:44 52.07274 9.24067 22852 ft 433 kts 187°
2026-05-05 15:44 52.04290 9.23508 22852 ft 432 kts 188°
2026-05-05 15:44 52.01320 9.22779 22853 ft 431 kts 190°
2026-05-05 15:45 51.98357 9.21949 22854 ft 431 kts 191°
2026-05-05 15:45 51.95399 9.21112 22844 ft 430 kts 190°
2026-05-05 15:45 51.92451 9.20309 22845 ft 430 kts 190°
2026-05-05 15:45 51.89493 9.19527 22836 ft 430 kts 190°
2026-05-05 15:46 51.86535 9.18790 22843 ft 430 kts 189°
2026-05-05 15:46 51.83557 9.18131 22833 ft 431 kts 188°
2026-05-05 15:46 51.80592 9.17509 22835 ft 431 kts 188°
2026-05-05 15:46 51.77620 9.16889 22832 ft 431 kts 188°
2026-05-05 15:47 51.74683 9.16271 22836 ft 431 kts 188°
2026-05-05 15:47 51.72676 9.15844 22834 ft 431 kts 188°
2026-05-05 15:47 51.68727 9.14998 22827 ft 431 kts 188°
2026-05-05 15:47 51.65748 9.14356 22825 ft 431 kts 188°
2026-05-05 15:48 51.62773 9.13714 22830 ft 431 kts 188°
2026-05-05 15:48 51.59805 9.13075 22820 ft 431 kts 188°
2026-05-05 15:48 51.56828 9.12435 22823 ft 431 kts 188°
2026-05-05 15:48 51.53891 9.11805 22822 ft 431 kts 188°
2026-05-05 15:49 51.50918 9.11166 22828 ft 431 kts 189°
2026-05-05 15:49 51.47969 9.10308 22826 ft 430 kts 192°
2026-05-05 15:49 51.45041 9.09299 22867 ft 431 kts 193°
2026-05-05 15:49 51.42096 9.08250 22830 ft 435 kts 193°
2026-05-05 15:50 51.39133 9.07204 22812 ft 436 kts 193°
2026-05-05 15:50 51.36176 9.06183 22795 ft 433 kts 192°
2026-05-05 15:50 51.33250 9.05189 22800 ft 428 kts 192°
2026-05-05 15:50 51.30340 9.04205 22792 ft 426 kts 192°
2026-05-05 15:51 51.27449 9.03227 22829 ft 425 kts 192°
2026-05-05 15:51 51.24545 9.02244 22821 ft 429 kts 192°
2026-05-05 15:51 51.21611 9.01250 22782 ft 433 kts 192°
2026-05-05 15:51 51.18658 9.00251 22798 ft 433 kts 192°
2026-05-05 15:52 51.15726 8.99263 22761 ft 428 kts 192°
2026-05-05 15:52 51.12819 8.98281 22796 ft 429 kts 192°
2026-05-05 15:52 51.09885 8.97306 22791 ft 430 kts 191°
2026-05-05 15:52 51.06935 8.96465 22792 ft 431 kts 189°
2026-05-05 15:53 51.03987 8.95655 22798 ft 431 kts 191°
2026-05-05 15:53 51.01021 8.94706 22808 ft 432 kts 192°
2026-05-05 15:53 50.98081 8.93706 22790 ft 433 kts 192°
2026-05-05 15:53 50.95138 8.92699 22789 ft 432 kts 192°
2026-05-05 15:54 50.92193 8.91703 22783 ft 432 kts 192°
2026-05-05 15:54 50.89258 8.90725 22786 ft 431 kts 192°
2026-05-05 15:54 50.86321 8.89756 22788 ft 431 kts 192°
2026-05-05 15:54 50.83393 8.88793 22791 ft 431 kts 192°
2026-05-05 15:55 50.80454 8.87810 22792 ft 431 kts 192°
2026-05-05 15:55 50.77527 8.86787 22779 ft 431 kts 192°
2026-05-05 15:55 50.74605 8.85750 22782 ft 431 kts 192°
2026-05-05 15:55 50.71716 8.84730 22788 ft 431 kts 192°
2026-05-05 15:56 50.68791 8.83707 22791 ft 431 kts 192°
2026-05-05 15:56 50.65824 8.82716 22787 ft 431 kts 189°
2026-05-05 15:56 50.62846 8.82126 22794 ft 431 kts 186°
2026-05-05 15:56 50.59863 8.81654 22785 ft 431 kts 185°
2026-05-05 15:57 50.56907 8.81225 22785 ft 431 kts 185°
2026-05-05 15:57 50.53916 8.80800 22793 ft 431 kts 185°
2026-05-05 15:57 50.50926 8.80373 22813 ft 433 kts 185°
2026-05-05 15:57 50.47917 8.79937 22796 ft 434 kts 185°
2026-05-05 15:58 50.44910 8.79495 22788 ft 434 kts 185°
2026-05-05 15:58 50.41905 8.79049 22786 ft 433 kts 185°
2026-05-05 15:58 50.38908 8.78603 22794 ft 431 kts 185°
2026-05-05 15:58 50.35925 8.78158 22799 ft 430 kts 185°
2026-05-05 15:59 50.32946 8.77713 22808 ft 430 kts 185°
2026-05-05 15:59 50.29973 8.77270 22810 ft 429 kts 185°
2026-05-05 15:59 50.26989 8.76827 22810 ft 429 kts 185°
2026-05-05 15:59 50.24019 8.76386 22819 ft 429 kts 185°
2026-05-05 16:00 50.21041 8.75945 22834 ft 430 kts 185°
2026-05-05 16:00 50.18055 8.75503 22843 ft 432 kts 185°
2026-05-05 16:00 50.15068 8.75061 22819 ft 433 kts 185°
2026-05-05 16:00 50.12051 8.74616 22816 ft 434 kts 185°
2026-05-05 16:01 50.09064 8.74175 22823 ft 433 kts 185°
2026-05-05 16:01 50.06050 8.73731 22825 ft 433 kts 185°
2026-05-05 16:01 50.03060 8.73291 22830 ft 433 kts 185°
2026-05-05 16:01 50.00086 8.72854 22835 ft 432 kts 185°
2026-05-05 16:02 49.97090 8.72415 22831 ft 432 kts 185°
2026-05-05 16:02 49.94100 8.71976 22826 ft 432 kts 185°
2026-05-05 16:02 49.91099 8.71538 22825 ft 432 kts 185°
2026-05-05 16:02 49.88103 8.71100 22831 ft 433 kts 185°
2026-05-05 16:03 49.85101 8.70661 22835 ft 433 kts 185°
2026-05-05 16:03 49.82097 8.70222 22827 ft 434 kts 185°
2026-05-05 16:03 49.79085 8.69783 22834 ft 434 kts 185°
2026-05-05 16:03 49.76077 8.69346 22830 ft 434 kts 185°
2026-05-05 16:04 49.73069 8.68910 22825 ft 435 kts 185°
2026-05-05 16:04 49.70057 8.68495 22827 ft 436 kts 185°
2026-05-05 16:04 49.67031 8.68095 22829 ft 436 kts 185°
2026-05-05 16:04 49.64008 8.67699 22834 ft 436 kts 185°
2026-05-05 16:05 49.60994 8.67304 22834 ft 436 kts 185°
2026-05-05 16:05 49.57964 8.66906 22830 ft 436 kts 185°
2026-05-05 16:05 49.54981 8.66513 22825 ft 437 kts 185°
2026-05-05 16:05 49.51944 8.66111 22830 ft 436 kts 185°
2026-05-05 16:06 49.48922 8.65711 22831 ft 437 kts 185°
2026-05-05 16:06 49.45886 8.65310 22829 ft 436 kts 185°
2026-05-05 16:06 49.42857 8.64911 22828 ft 436 kts 185°
2026-05-05 16:06 49.39830 8.64512 22826 ft 436 kts 185°
2026-05-05 16:07 49.36812 8.64115 22831 ft 435 kts 184°
2026-05-05 16:07 49.33791 8.64120 22627 ft 436 kts 174°
2026-05-05 16:07 49.30840 8.65149 22053 ft 433 kts 160°
2026-05-05 16:07 49.28171 8.67181 21473 ft 429 kts 148°
2026-05-05 16:08 49.25873 8.70088 20838 ft 426 kts 137°
2026-05-05 16:08 49.23828 8.73351 20194 ft 423 kts 134°
2026-05-05 16:08 49.21860 8.76661 19585 ft 419 kts 134°
2026-05-05 16:08 49.19943 8.79935 18969 ft 417 kts 134°
2026-05-05 16:09 49.17998 8.83274 18362 ft 414 kts 134°
2026-05-05 16:09 49.16089 8.86564 17691 ft 411 kts 134°
2026-05-05 16:09 49.14225 8.89787 17008 ft 409 kts 134°
2026-05-05 16:09 49.12351 8.93033 16345 ft 407 kts 133°
2026-05-05 16:10 49.10481 8.96276 15695 ft 405 kts 133°
2026-05-05 16:10 49.08629 8.99505 15041 ft 403 kts 131°
2026-05-05 16:10 49.07001 9.02982 14406 ft 403 kts 125°
2026-05-05 16:10 49.05503 9.06589 13787 ft 401 kts 124°
2026-05-05 16:11 49.04047 9.10196 13116 ft 399 kts 124°
2026-05-05 16:11 48.99760 9.20946 11131 ft 386 kts 124°
2026-05-05 16:12 48.98398 9.24398 10509 ft 375 kts 124°
2026-05-05 16:12 48.95806 9.31037 9255 ft 356 kts 123°
2026-05-05 16:13 48.92227 9.40261 7389 ft 337 kts 123°
2026-05-05 16:13 48.91038 9.43303 6831 ft 330 kts 123°
2026-05-05 16:13 48.89789 9.46140 6370 ft 317 kts 137°
2026-05-05 16:14 48.86119 9.49261 5506 ft 295 kts 154°
2026-05-05 16:14 48.82611 9.52105 4925 ft 275 kts 154°
2026-05-05 16:15 48.79364 9.54629 4584 ft 249 kts 169°
2026-05-05 16:15 48.76523 9.53056 4341 ft 214 kts 224°
2026-05-05 16:16 48.74527 9.50136 4098 ft 186 kts 225°
2026-05-05 16:16 48.73683 9.46864 4001 ft 174 kts 259°
2026-05-05 16:17 48.72996 9.43333 3699 ft 172 kts 254°
2026-05-05 16:17 48.72782 9.42170 3552 ft 167 kts 254°
2026-05-05 16:18 48.72158 9.38872 3141 ft 163 kts 255°
2026-05-05 16:18 48.71846 9.37241 2908 ft 158 kts 255°
2026-05-05 16:18 48.71229 9.34004 2498 ft 160 kts 255°
2026-05-05 16:19 48.70924 9.32399 2277 ft 157 kts 255°
2026-05-05 16:19 48.70625 9.30828 2065 ft 153 kts 255°
2026-05-05 16:19 48.70020 9.27675 1664 ft 157 kts 255°
2026-05-05 16:20 48.69430 9.24543 1263 ft 153 kts 256°
2026-05-05 16:20 48.68950 9.22020 1249 ft 83 kts 255°
2026-05-05 16:21 48.68822 9.21095 1270 ft 21 kts 276°
2026-05-05 16:22 48.68856 9.20867 1277 ft 3 kts 284°
2026-05-05 16:22 48.68862 9.20832 1279 ft 0 kts 284°
2026-05-05 16:23 48.68864 9.20819 1279 ft 3 kts 284°
2026-05-05 16:24 48.68869 9.20787 1279 ft 3 kts 283°
2026-05-05 16:24 48.68874 9.20757 1280 ft 3 kts 287°
2026-05-05 16:24 48.68942 9.20642 1285 ft 10 kts 312°
2026-05-05 16:25 48.68991 9.20561 1288 ft 11 kts 319°
2026-05-05 16:25 48.69051 9.20379 1296 ft 11 kts 254°
2026-05-05 16:25 48.69039 9.20315 1298 ft 5 kts 252°
2026-05-05 16:26 48.69018 9.20238 1301 ft 0 kts 225°
2026-05-05 16:26 48.68998 9.20232 1301 ft 4 kts 166°
2026-05-05 16:27 48.68993 9.20235 1302 ft 3 kts 161°
2026-05-05 16:27 48.68963 9.20252 1302 ft 2 kts 163°
2026-05-05 16:27 48.68952 9.20257 1302 ft 2 kts 164°
2026-05-05 16:27 48.68941 9.20262 1301 ft 2 kts 163°
2026-05-05 16:28 48.68931 9.20266 1301 ft 0 kts 164°